TimeEDT,TemperatureF,Dew PointF,Humidity,Sea Level PressureIn,VisibilityMPH,Wind Direction,Wind SpeedMPH,Gust SpeedMPH,PrecipitationIn,Events,Conditions,WindDirDegrees,DateUTC
12:53 AM,73.9,70.0,87,30.15,10.0,Calm,Calm,-,N/A,,Partly Cloudy,0,2012-10-05 04:53:00
1:53 AM,73.0,70.0,90,30.14,9.0,Calm,Calm,-,N/A,,Partly Cloudy,0,2012-10-05 05:53:00
2:53 AM,73.0,70.0,90,30.12,8.0,Calm,Calm,-,N/A,,Clear,0,2012-10-05 06:53:00
3:53 AM,71.6,69.8,94,30.12,9.0,Calm,Calm,-,N/A,,Clear,0,2012-10-05 07:53:00
4:12 AM,71.6,69.8,94,30.12,9.0,ESE,3.5,-,N/A,,Scattered Clouds,110,2012-10-05 08:12:00
4:27 AM,71.6,69.8,94,30.12,9.0,ESE,3.5,-,N/A,,Mostly Cloudy,110,2012-10-05 08:27:00
4:53 AM,73.0,70.0,90,30.12,9.0,ENE,3.5,-,N/A,,Mostly Cloudy,70,2012-10-05 08:53:00
5:11 AM,73.4,69.8,88,30.12,9.0,Calm,Calm,-,N/A,,Partly Cloudy,0,2012-10-05 09:11:00
5:53 AM,72.0,70.0,93,30.12,9.0,Calm,Calm,-,N/A,,Partly Cloudy,0,2012-10-05 09:53:00
6:10 AM,71.6,69.8,94,30.12,8.0,North,3.5,-,N/A,,Mostly Cloudy,10,2012-10-05 10:10:00
6:53 AM,73.0,70.0,90,30.12,5.0,Calm,Calm,-,N/A,,Overcast,0,2012-10-05 10:53:00
7:53 AM,73.0,70.0,90,30.13,4.0,NNE,3.5,-,N/A,,Overcast,30,2012-10-05 11:53:00
8:53 AM,73.9,71.1,91,30.14,6.0,NNE,3.5,-,N/A,,Overcast,30,2012-10-05 12:53:00
9:45 AM,75.2,71.6,89,30.13,10.0,NE,3.5,-,N/A,,Overcast,40,2012-10-05 13:45:00
9:53 AM,75.9,71.1,85,30.13,10.0,East,3.5,-,N/A,,Overcast,80,2012-10-05 13:53:00
10:36 AM,78.8,71.6,78,30.13,10.0,Calm,Calm,-,N/A,,Mostly Cloudy,0,2012-10-05 14:36:00
10:53 AM,79.0,71.1,77,30.13,10.0,NNE,3.5,-,N/A,,Mostly Cloudy,30,2012-10-05 14:53:00
11:53 AM,80.1,71.1,74,30.12,10.0,Variable,3.5,-,N/A,,Scattered Clouds,0,2012-10-05 15:53:00
12:53 PM,84.0,72.0,67,30.11,10.0,Calm,Calm,-,N/A,,Mostly Cloudy,0,2012-10-05 16:53:00
1:53 PM,82.9,71.1,67,30.09,10.0,Calm,Calm,-,N/A,,Overcast,0,2012-10-05 17:53:00
2:53 PM,82.9,71.1,67,30.05,10.0,Calm,Calm,-,N/A,,Scattered Clouds,0,2012-10-05 18:53:00
3:53 PM,84.0,71.1,65,30.02,10.0,North,4.6,-,N/A,,Partly Cloudy,10,2012-10-05 19:53:00
4:53 PM,84.0,72.0,67,30.00,10.0,NNE,3.5,-,N/A,,Partly Cloudy,20,2012-10-05 20:53:00
5:53 PM,82.9,72.0,69,30.00,10.0,NE,3.5,-,N/A,,Partly Cloudy,40,2012-10-05 21:53:00
6:53 PM,82.0,72.0,71,30.00,10.0,Calm,Calm,-,N/A,,Partly Cloudy,0,2012-10-05 22:53:00
7:53 PM,79.0,73.0,82,30.01,10.0,East,4.6,-,N/A,,Clear,100,2012-10-05 23:53:00
8:53 PM,78.1,73.0,84,30.03,10.0,Calm,Calm,-,N/A,,Clear,0,2012-10-06 00:53:00
9:53 PM,75.9,73.0,91,30.03,10.0,Calm,Calm,-,N/A,,Partly Cloudy,0,2012-10-06 01:53:00
10:53 PM,75.9,72.0,87,30.04,10.0,Calm,Calm,-,N/A,,Clear,0,2012-10-06 02:53:00
11:53 PM,75.0,71.1,87,30.03,10.0,Calm,Calm,-,N/A,,Clear,0,2012-10-06 03:53:00